Terminal Aerodrome Forecast
Issued by NWS

Home | Current Version | Previous Version | Text Only | Print | Product List | Glossary On
Versions: 1 2 3 4 5 6 7 8 9 10 11 12 13 14 15 16
705
FTUS46 KPDT 181743
TAFRDM
TAF
KRDM 181743Z 1818/1918 17018G26KT P6SM -SHRA SCT050 OVC100
     FM182000 18014G20KT P6SM VCSH SCT060 BKN100
     FM190400 18008KT P6SM VCSH BKN080=

USA.gov is the U.S. government's official web portal to all federal, state and local government web resources and services.